| time (UTC) | temp F | wind direction | speed MPH | gust MPH | rain 1hr in | rain 24hr in | rain mn in | humidity % | barometer mb |
| 20260902101005 | 71 | 248 | 2.0 | 2.0 | 0.00 | 0.00 | 0.00 | 99 | 1017.3 |
| 20260902100500 | 71 | 287 | 2.0 | 3.0 | 0.00 | 0.00 | 0.00 | 99 | 1017.4 |
| 20260902100000 | 71 | 263 | 1.0 | 3.0 | 0.00 | 0.00 | 0.00 | 99 | 1017.3 |
| 20260902095454 | 71 | 270 | 1.0 | 3.0 | 0.00 | 0.00 | 0.00 | 99 | 1017.3 |
| 20260902094953 | 71 | 264 | 1.0 | 3.0 | 0.00 | 0.00 | 0.00 | 99 | 1017.5 |
| 20260902094449 | 71 | 270 | 2.0 | 2.0 | 0.00 | 0.00 | 0.00 | 99 | 1017.2 |
| 20260902093944 | 71 | 270 | 2.0 | 2.0 | 0.00 | 0.00 | 0.00 | 99 | 1017.4 |
| 20260902093439 | 71 | 261 | 0.0 | 2.0 | 0.00 | 0.00 | 0.00 | 99 | 1017.3 |
| 20260902092938 | 71 | 282 | 2.0 | 2.0 | 0.00 | 0.00 | 0.00 | 99 | 1017.2 |
| 20260902092434 | 71 | 276 | 2.0 | 2.0 | 0.00 | 0.00 | 0.00 | 99 | 1017.2 |
| 20260902091933 | 71 | 264 | 1.0 | 2.0 | 0.00 | 0.00 | 0.00 | 99 | 1017.3 |
| 20260902091429 | 71 | 264 | 1.0 | 2.0 | 0.00 | 0.00 | 0.00 | 99 | 1017.1 |
| 20260902090925 | 71 | 255 | 1.0 | 2.0 | 0.00 | 0.00 | 0.00 | 99 | 1017.2 |
| 20260902090426 | 71 | 243 | 2.0 | 2.0 | 0.00 | 0.00 | 0.00 | 99 | 1017.2 |
| 20260902085924 | 71 | 259 | 2.0 | 2.0 | 0.00 | 0.00 | 0.00 | 99 | 1017.1 |
| 20260902085420 | 71 | 248 | 2.0 | 3.0 | 0.00 | 0.00 | 0.00 | 99 | 1017.0 |
| 20260902084915 | 71 | 249 | 1.0 | 3.0 | 0.00 | 0.00 | 0.00 | 99 | 1017.0 |
| 20260902084411 | 71 | 257 | 2.0 | 3.0 | 0.00 | 0.00 | 0.00 | 99 | 1016.8 |
| 20260902083906 | 71 | 276 | 2.0 | 3.0 | 0.00 | 0.00 | 0.00 | 99 | 1016.9 |
| 20260902083401 | 71 | 251 | 2.0 | 2.0 | 0.00 | 0.00 | 0.00 | 99 | 1016.9 |
| 20260902082856 | 71 | 270 | 1.0 | 3.0 | 0.02 | 0.00 | 0.00 | 99 | 1017.1 |
| 20260902082352 | 71 | 254 | 2.0 | 2.0 | 0.02 | 0.00 | 0.00 | 99 | 1016.9 |
| 20260902081848 | 71 | 270 | 1.0 | 2.0 | 0.00 | 0.00 | 0.00 | 99 | 1016.9 |
| 20260902081344 | 71 | 261 | 2.0 | 2.0 | 0.00 | 0.00 | 0.00 | 99 | 1017.0 |
| 20260902080838 | 71 | 270 | 1.0 | 2.0 | 0.00 | 0.00 | 0.00 | 99 | 1017.3 |
| 20260902080335 | 71 | 258 | 2.0 | 2.0 | 0.00 | 0.00 | 0.00 | 99 | 1017.1 |
| 20260902075834 | 71 | 259 | 2.0 | 2.0 | 0.00 | 0.00 | 0.00 | 99 | 1016.7 |
| 20260902075331 | 71 | 257 | 1.0 | 3.0 | 0.00 | 0.00 | 0.00 | 99 | 1016.6 |
| 20260902074825 | 71 | 257 | 1.0 | 3.0 | 0.00 | 0.00 | 0.00 | 99 | 1016.9 |
| 20260902074316 | 71 | 233 | 0.0 | 3.0 | 0.00 | 0.00 | 0.00 | 99 | 1016.7 |
| 20260902073816 | 71 | 210 | 2.0 | 3.0 | 0.00 | 0.00 | 0.00 | 99 | 1016.6 |
| 20260902073312 | 71 | 264 | 2.0 | 2.0 | 0.00 | 0.00 | 0.00 | 99 | 1016.5 |
| 20260902072808 | 71 | 261 | 2.0 | 2.0 | 0.00 | 0.00 | 0.00 | 99 | 1016.6 |
| 20260902072308 | 71 | 257 | 2.0 | 2.0 | 0.00 | 0.00 | 0.00 | 99 | 1016.6 |
| 20260902071800 | 71 | 278 | 1.0 | 3.0 | 0.00 | 0.00 | 0.00 | 99 | 1016.4 |
| 20260902071254 | 71 | 282 | 2.0 | 2.0 | 0.00 | 0.00 | 0.00 | 99 | 1016.3 |
| 20260902070751 | 71 | 264 | 1.0 | 2.0 | 0.00 | 0.00 | 0.00 | 99 | 1016.3 |
| 20260902070250 | 71 | 264 | 2.0 | 2.0 | 0.00 | 0.00 | 0.00 | 99 | 1016.2 |
| 20260902065749 | 71 | 276 | 1.0 | 2.0 | 0.00 | 0.00 | 0.00 | 99 | 1016.4 |
| 20260902065244 | 71 | 243 | 2.0 | 3.0 | 0.00 | 0.00 | 0.00 | 99 | 1016.3 |
| 20260902064740 | 71 | 261 | 2.0 | 3.0 | 0.00 | 0.00 | 0.00 | 99 | 1016.5 |
| 20260902064236 | 71 | 258 | 2.0 | 2.0 | 0.00 | 0.00 | 0.00 | 99 | 1016.3 |
| 20260902063731 | 71 | 270 | 1.0 | 2.0 | 0.00 | 0.00 | 0.00 | 99 | 1016.4 |
| 20260902063226 | 71 | 254 | 2.0 | 2.0 | 0.00 | 0.00 | 0.00 | 99 | 1016.1 |
| 20260902062725 | 71 | 234 | 0.0 | 2.0 | 0.00 | 0.00 | 0.00 | 99 | 1016.1 |
| 20260902062221 | 71 | 264 | 1.0 | 2.0 | 0.00 | 0.00 | 0.00 | 99 | 1016.5 |
| 20260902061719 | 71 | 253 | 2.0 | 2.0 | 0.00 | 0.00 | 0.00 | 99 | 1016.4 |
| 20260902061215 | 71 | 259 | 2.0 | 2.0 | 0.00 | 0.00 | 0.00 | 99 | 1016.4 |
| 20260902060712 | 71 | 270 | 1.0 | 1.0 | 0.00 | 0.00 | 0.00 | 99 | 1016.4 |
| 20260902060207 | 71 | 276 | 1.0 | 2.0 | 0.00 | 0.00 | 0.00 | 99 | 1016.5 |
| 20260902055703 | 70 | 261 | 0.0 | 1.0 | 0.00 | 0.00 | 0.00 | 99 | 1016.5 |
| 20260902055159 | 71 | 258 | 2.0 | 3.0 | 0.00 | 0.00 | 0.00 | 99 | 1016.4 |
| 20260902054654 | 70 | 255 | 2.0 | 2.0 | 0.00 | 0.00 | 0.00 | 99 | 1016.7 |
| 20260902054149 | 70 | 246 | 2.0 | 2.0 | 0.00 | 0.00 | 0.00 | 99 | 1016.2 |
| 20260902053645 | 70 | 270 | 0.0 | 2.0 | 0.00 | 0.00 | 0.00 | 99 | 1016.6 |
| 20260902053145 | 70 | 278 | 1.0 | 3.0 | 0.00 | 0.00 | 0.00 | 99 | 1016.5 |
| 20260902052644 | 70 | 278 | 0.0 | 2.0 | 0.00 | 0.00 | 0.00 | 99 | 1016.7 |
| 20260902052140 | 70 | 261 | 0.0 | 3.0 | 0.00 | 0.00 | 0.00 | 99 | 1016.6 |
| 20260902051638 | 70 | 233 | 3.0 | 3.0 | 0.00 | 0.00 | 0.00 | 99 | 1016.6 |
| 20260902051133 | 70 | 264 | 2.0 | 2.0 | 0.00 | 0.00 | 0.00 | 99 | 1016.5 |
| 20260902050628 | 70 | 221 | 2.0 | 3.0 | 0.00 | 0.00 | 0.00 | 99 | 1016.3 |
| 20260902050123 | 70 | 270 | 0.0 | 1.0 | 0.00 | 0.00 | 0.00 | 99 | 1016.4 |
| 20260902045618 | 70 | 279 | 0.0 | 2.0 | 0.00 | 0.00 | 0.00 | 99 | 1016.5 |
| 20260902045115 | 70 | 264 | 0.0 | 2.0 | 0.00 | 0.00 | 0.00 | 99 | 1016.3 |
| 20260902044614 | 70 | 246 | 0.0 | 1.0 | 0.00 | 0.00 | 0.00 | 99 | 1016.2 |
| 20260902044110 | 70 | 270 | 1.0 | 2.0 | 0.00 | 0.00 | 0.00 | 99 | 1016.2 |
| 20260902043605 | 70 | 283 | 1.0 | 2.0 | 0.00 | 0.00 | 0.00 | 99 | 1016.2 |
| 20260902043100 | 70 | 229 | 0.0 | 2.0 | 0.00 | 0.00 | 0.00 | 99 | 1016.0 |
| 20260902042600 | 70 | 240 | 1.0 | 2.0 | 0.00 | 0.00 | 0.00 | 99 | 1016.1 |
| 20260902042055 | 70 | 286 | 2.0 | 2.0 | 0.00 | 0.00 | 0.00 | 99 | 1016.1 |
| 20260902041554 | 70 | 254 | 3.0 | 3.0 | 0.00 | 0.00 | 0.00 | 99 | 1016.2 |
| 20260902041049 | 70 | 243 | 0.0 | 2.0 | 0.00 | 0.00 | 0.00 | 99 | 1016.0 |
| 20260902040544 | 70 | 270 | 1.0 | 2.0 | 0.00 | 0.00 | 0.00 | 99 | 1015.7 |
| 20260902040039 | 70 | 262 | 3.0 | 3.0 | 0.00 | 0.00 | 0.00 | 99 | 1015.8 |
| 20260902035537 | 70 | 240 | 2.0 | 2.0 | 0.00 | 0.07 | 0.07 | 99 | 1015.6 |
| 20260902035033 | 70 | 247 | 2.0 | 2.0 | 0.00 | 0.07 | 0.07 | 99 | 1015.6 |
| 20260902034532 | 70 | 243 | 0.0 | 3.0 | 0.00 | 0.07 | 0.07 | 99 | 1015.5 |
| 20260902034031 | 71 | 262 | 3.0 | 3.0 | 0.00 | 0.07 | 0.07 | 99 | 1015.7 |
| 20260902033530 | 70 | 257 | 4.0 | 4.0 | 0.00 | 0.07 | 0.07 | 99 | 1015.6 |
| 20260902033026 | 70 | 251 | 3.0 | 3.0 | 0.00 | 0.07 | 0.07 | 99 | 1015.7 |
| 20260902032524 | 70 | 255 | 3.0 | 3.0 | 0.00 | 0.07 | 0.07 | 99 | 1015.9 |
| 20260902032019 | 70 | 255 | 3.0 | 3.0 | 0.00 | 0.07 | 0.07 | 99 | 1015.8 |
| 20260902031514 | 70 | 270 | 3.0 | 3.0 | 0.00 | 0.07 | 0.07 | 99 | 1015.8 |
| 20260902031010 | 70 | 244 | 3.0 | 4.0 | 0.00 | 0.07 | 0.07 | 99 | 1015.8 |
| 20260902030505 | 71 | 180 | 2.0 | 2.0 | 0.00 | 0.07 | 0.07 | 99 | 1015.7 |
| 20260902030004 | 70 | 262 | 2.0 | 3.0 | 0.00 | 0.07 | 0.07 | 99 | 1015.8 |
| 20260902025459 | 71 | 245 | 2.0 | 4.0 | 0.00 | 0.07 | 0.07 | 99 | 1015.5 |
| 20260902024954 | 71 | 270 | 2.0 | 3.0 | 0.00 | 0.07 | 0.07 | 99 | 1015.4 |
| 20260902024449 | 71 | 240 | 3.0 | 4.0 | 0.00 | 0.07 | 0.07 | 99 | 1015.5 |
| 20260902023944 | 71 | 251 | 2.0 | 3.0 | 0.00 | 0.07 | 0.07 | 99 | 1015.7 |
| 20260902023440 | 71 | 213 | 3.0 | 4.0 | 0.00 | 0.07 | 0.07 | 99 | 1015.3 |
| 20260902022939 | 72 | 306 | 0.0 | 6.0 | 0.00 | 0.07 | 0.07 | 99 | 1015.4 |
| 20260902022434 | 72 | 233 | 0.0 | 3.0 | 0.00 | 0.07 | 0.07 | 99 | 1015.7 |
| 20260902021930 | 72 | 262 | 3.0 | 3.0 | 0.02 | 0.07 | 0.07 | 99 | 1016.1 |
| 20260902021425 | 71 | 270 | 1.0 | 3.0 | 0.02 | 0.07 | 0.07 | 99 | 1016.6 |
| 20260902020921 | 72 | 261 | 2.0 | 6.0 | 0.00 | 0.07 | 0.07 | 99 | 1016.6 |
| 20260902020417 | 72 | 204 | 5.0 | 6.0 | 0.02 | 0.07 | 0.07 | 99 | 1016.4 |
| 20260902015912 | 73 | 213 | 3.0 | 3.0 | 0.26 | 0.07 | 0.07 | 99 | 1017.1 |
| 20260902015408 | 74 | 334 | 3.0 | 5.0 | 0.31 | 0.06 | 0.06 | 99 | 1017.1 |
| 20260902014903 | 76 | 279 | 0.0 | 6.0 | 0.09 | 0.02 | 0.02 | 99 | 1016.7 |
| 20260902014400 | 78 | 165 | 1.0 | 5.0 | 0.02 | 0.00 | 0.00 | 99 | 1016.0 |
| 20260902013858 | 78 | 190 | 0.0 | 0.0 | 0.00 | 0.00 | 0.00 | 98 | 1014.6 |
| 20260902013354 | 78 | 260 | 2.0 | 2.0 | 0.00 | 0.00 | 0.00 | 97 | 1013.3 |
| 20260902012849 | 78 | 260 | 2.0 | 2.0 | 0.00 | 0.00 | 0.00 | 97 | 1012.9 |
| 20260902012345 | 78 | 260 | 2.0 | 2.0 | 0.00 | 0.00 | 0.00 | 97 | 1012.8 |
| 20260902011841 | 78 | 260 | 2.0 | 2.0 | 0.00 | 0.00 | 0.00 | 97 | 1013.1 |
| 20260902011335 | 78 | 260 | 2.0 | 2.0 | 0.00 | 0.00 | 0.00 | 97 | 1012.8 |
| 20260902010835 | 78 | 260 | 2.0 | 2.0 | 0.00 | 0.00 | 0.00 | 97 | 1012.7 |
| 20260902010330 | 78 | 260 | 2.0 | 2.0 | 0.00 | 0.00 | 0.00 | 97 | 1012.3 |
| 20260902005829 | 78 | 260 | 2.0 | 2.0 | 0.00 | 0.00 | 0.00 | 97 | 1012.6 |
| 20260902005323 | 78 | 260 | 2.0 | 2.0 | 0.00 | 0.00 | 0.00 | 97 | 1012.2 |
| 20260902004819 | 78 | 260 | 2.0 | 2.0 | 0.00 | 0.00 | 0.00 | 97 | 1012.5 |
| 20260902004313 | 78 | 260 | 2.0 | 2.0 | 0.00 | 0.00 | 0.00 | 97 | 1012.1 |
| 20260902003808 | 78 | 260 | 2.0 | 2.0 | 0.00 | 0.00 | 0.00 | 97 | 1012.5 |
| 20260902003303 | 80 | 260 | 2.0 | 2.0 | 0.00 | 0.00 | 0.00 | 96 | 1012.6 |
| 20260902002759 | 80 | 260 | 2.0 | 2.0 | 0.00 | 0.00 | 0.00 | 96 | 1012.6 |
| 20260902002259 | 80 | 260 | 2.0 | 2.0 | 0.00 | 0.00 | 0.00 | 96 | 1012.7 |
| 20260902001754 | 80 | 260 | 2.0 | 2.0 | 0.00 | 0.00 | 0.00 | 96 | 1012.7 |
| 20260902001249 | 80 | 260 | 2.0 | 2.0 | 0.00 | 0.00 | 0.00 | 96 | 1012.8 |
| 20260902000743 | 80 | 260 | 2.0 | 2.0 | 0.00 | 0.00 | 0.00 | 96 | 1012.8 |
| 20260902000241 | 80 | 264 | 2.0 | 2.0 | 0.00 | 0.00 | 0.00 | 96 | 1012.8 |
| 20260901235733 | 80 | 260 | 2.0 | 2.0 | 0.00 | 0.00 | 0.00 | 95 | 1012.5 |
| 20260901235228 | 80 | 280 | 2.0 | 2.0 | 0.00 | 0.00 | 0.00 | 95 | 1012.4 |
| 20260901234728 | 80 | 280 | 2.0 | 2.0 | 0.00 | 0.00 | 0.00 | 95 | 1012.6 |
| 20260901234227 | 80 | 280 | 2.0 | 2.0 | 0.00 | 0.00 | 0.00 | 95 | 1012.6 |
| 20260901233722 | 80 | 258 | 2.0 | 2.0 | 0.00 | 0.00 | 0.00 | 94 | 1012.7 |
| 20260901233219 | 80 | 248 | 2.0 | 3.0 | 0.00 | 0.00 | 0.00 | 94 | 1012.6 |
| 20260901232719 | 81 | 261 | 2.0 | 3.0 | 0.00 | 0.00 | 0.00 | 94 | 1012.9 |
| 20260901232214 | 81 | 246 | 1.0 | 3.0 | 0.00 | 0.00 | 0.00 | 93 | 1012.6 |
| 20260901231710 | 81 | 253 | 2.0 | 2.0 | 0.00 | 0.00 | 0.00 | 93 | 1012.9 |
| 20260901231206 | 82 | 259 | 2.0 | 2.0 | 0.00 | 0.00 | 0.00 | 92 | 1012.8 |
| 20260901230702 | 82 | 262 | 1.0 | 2.0 | 0.00 | 0.00 | 0.00 | 92 | 1012.8 |
| 20260901230201 | 82 | 264 | 0.0 | 2.0 | 0.00 | 0.00 | 0.00 | 91 | 1012.9 |
| 20260901225657 | 82 | 257 | 2.0 | 3.0 | 0.00 | 0.00 | 0.00 | 93 | 1012.8 |
| 20260901225151 | 82 | 260 | 2.0 | 2.0 | 0.00 | 0.00 | 0.00 | 93 | 1012.4 |
| 20260901224647 | 82 | 259 | 3.0 | 3.0 | 0.00 | 0.00 | 0.00 | 92 | 1012.6 |
| 20260901224143 | 82 | 257 | 2.0 | 3.0 | 0.00 | 0.00 | 0.00 | 91 | 1012.6 |
| 20260901223638 | 83 | 243 | 2.0 | 3.0 | 0.00 | 0.00 | 0.00 | 90 | 1012.6 |
| 20260901223134 | 84 | 264 | 2.0 | 3.0 | 0.00 | 0.00 | 0.00 | 89 | 1012.6 |
| 20260901222630 | 84 | 251 | 2.0 | 4.0 | 0.00 | 0.00 | 0.00 | 87 | 1012.5 |
| 20260901222126 | 83 | 258 | 2.0 | 3.0 | 0.00 | 0.00 | 0.00 | 89 | 1012.5 |
| 20260901221621 | 84 | 255 | 2.0 | 3.0 | 0.00 | 0.00 | 0.00 | 89 | 1012.6 |
| 20260901221117 | 84 | 251 | 2.0 | 3.0 | 0.00 | 0.00 | 0.00 | 89 | 1012.7 |
| 20260901220616 | 84 | 237 | 2.0 | 3.0 | 0.00 | 0.00 | 0.00 | 87 | 1012.8 |
| 20260901220115 | 84 | 195 | 0.0 | 3.0 | 0.00 | 0.00 | 0.00 | 86 | 1012.7 |
| 20260901215614 | 85 | 246 | 1.0 | 4.0 | 0.00 | 0.00 | 0.00 | 86 | 1012.8 |
| 20260901215108 | 85 | 233 | 3.0 | 5.0 | 0.00 | 0.00 | 0.00 | 83 | 1012.8 |
| 20260901214607 | 85 | 266 | 2.0 | 3.0 | 0.00 | 0.00 | 0.00 | 82 | 1012.7 |
| 20260901214107 | 86 | 261 | 2.0 | 3.0 | 0.00 | 0.00 | 0.00 | 83 | 1012.8 |
| 20260901213601 | 86 | 251 | 2.0 | 3.0 | 0.00 | 0.00 | 0.00 | 81 | 1012.7 |
| 20260901213055 | 86 | 250 | 2.0 | 4.0 | 0.00 | 0.00 | 0.00 | 80 | 1013.0 |
| 20260901212555 | 86 | 258 | 3.0 | 3.0 | 0.00 | 0.00 | 0.00 | 78 | 1012.9 |
| 20260901212052 | 87 | 261 | 2.0 | 3.0 | 0.00 | 0.00 | 0.00 | 79 | 1013.1 |
| 20260901211547 | 87 | 235 | 3.0 | 5.0 | 0.00 | 0.00 | 0.00 | 77 | 1012.8 |
| 20260901211043 | 87 | 233 | 2.0 | 4.0 | 0.00 | 0.00 | 0.00 | 76 | 1013.1 |
| 20260901210538 | 87 | 227 | 3.0 | 4.0 | 0.00 | 0.00 | 0.00 | 77 | 1013.2 |
| 20260901210035 | 87 | 234 | 0.0 | 4.0 | 0.00 | 0.00 | 0.00 | 77 | 1013.0 |
| 20260901205529 | 87 | 248 | 2.0 | 3.0 | 0.00 | 0.00 | 0.00 | 79 | 1013.1 |
| 20260901205024 | 87 | 221 | 4.0 | 4.0 | 0.00 | 0.00 | 0.00 | 77 | 1012.7 |
| 20260901204520 | 87 | 253 | 3.0 | 3.0 | 0.00 | 0.00 | 0.00 | 75 | 1012.9 |
| 20260901204015 | 88 | 270 | 1.0 | 5.0 | 0.00 | 0.00 | 0.00 | 73 | 1012.9 |
| 20260901203509 | 88 | 236 | 3.0 | 4.0 | 0.00 | 0.00 | 0.00 | 70 | 1013.0 |
| 20260901203004 | 89 | 237 | 2.0 | 3.0 | 0.00 | 0.00 | 0.00 | 69 | 1013.1 |
| 20260901202459 | 89 | 277 | 0.0 | 5.0 | 0.00 | 0.00 | 0.00 | 70 | 1012.9 |
| 20260901201955 | 90 | 211 | 3.0 | 4.0 | 0.00 | 0.00 | 0.00 | 72 | 1013.1 |
| 20260901201450 | 89 | 250 | 0.0 | 5.0 | 0.00 | 0.00 | 0.00 | 68 | 1013.2 |
| 20260901200944 | 91 | 286 | 2.0 | 3.0 | 0.00 | 0.00 | 0.00 | 70 | 1013.1 |
| 20260901200439 | 90 | 232 | 2.0 | 5.0 | 0.00 | 0.00 | 0.00 | 73 | 1013.2 |
| 20260901195938 | 90 | 228 | 4.0 | 4.0 | 0.00 | 0.00 | 0.00 | 68 | 1013.2 |
| 20260901195437 | 91 | 213 | 3.0 | 4.0 | 0.00 | 0.00 | 0.00 | 67 | 1013.4 |
| 20260901194931 | 90 | 263 | 3.0 | 3.0 | 0.00 | 0.00 | 0.00 | 70 | 1013.2 |
| 20260901194427 | 90 | 235 | 2.0 | 5.0 | 0.00 | 0.00 | 0.00 | 73 | 1013.3 |
| 20260901193923 | 90 | 287 | 2.0 | 4.0 | 0.00 | 0.00 | 0.00 | 72 | 1013.3 |
| 20260901193422 | 89 | 242 | 3.0 | 4.0 | 0.00 | 0.00 | 0.00 | 74 | 1013.3 |
| 20260901192921 | 91 | 243 | 3.0 | 4.0 | 0.00 | 0.00 | 0.00 | 74 | 1013.5 |
| 20260901192417 | 91 | 270 | 3.0 | 4.0 | 0.00 | 0.00 | 0.00 | 73 | 1013.3 |
| 20260901191913 | 90 | 217 | 4.0 | 4.0 | 0.00 | 0.00 | 0.00 | 71 | 1013.5 |
| 20260901191409 | 90 | 263 | 3.0 | 3.0 | 0.00 | 0.00 | 0.00 | 72 | 1013.5 |
| 20260901190905 | 90 | 259 | 3.0 | 4.0 | 0.00 | 0.00 | 0.00 | 72 | 1013.5 |
| 20260901190359 | 90 | 265 | 4.0 | 4.0 | 0.00 | 0.00 | 0.00 | 75 | 1013.6 |
| 20260901185857 | 89 | 255 | 3.0 | 4.0 | 0.00 | 0.00 | 0.00 | 75 | 1013.5 |
| 20260901185356 | 89 | 270 | 0.0 | 3.0 | 0.00 | 0.00 | 0.00 | 76 | 1013.5 |
| 20260901184852 | 89 | 234 | 4.0 | 4.0 | 0.00 | 0.00 | 0.00 | 81 | 1013.8 |
| 20260901184347 | 87 | 245 | 2.0 | 3.0 | 0.00 | 0.00 | 0.00 | 83 | 1013.7 |
| 20260901183842 | 87 | 275 | 2.0 | 3.0 | 0.00 | 0.00 | 0.00 | 80 | 1014.0 |
| 20260901183342 | 87 | 252 | 4.0 | 4.0 | 0.00 | 0.00 | 0.00 | 80 | 1013.8 |
| 20260901182838 | 87 | 266 | 3.0 | 5.0 | 0.00 | 0.00 | 0.00 | 81 | 1014.1 |
| 20260901182338 | 88 | 249 | 3.0 | 4.0 | 0.00 | 0.00 | 0.00 | 79 | 1013.9 |
| 20260901181833 | 87 | 254 | 2.0 | 3.0 | 0.00 | 0.00 | 0.00 | 84 | 1013.9 |
| 20260901181327 | 86 | 235 | 2.0 | 3.0 | 0.00 | 0.00 | 0.00 | 83 | 1014.2 |
| 20260901180826 | 87 | 251 | 3.0 | 3.0 | 0.00 | 0.00 | 0.00 | 85 | 1014.2 |
| 20260901180325 | 85 | 279 | 2.0 | 4.0 | 0.00 | 0.00 | 0.00 | 84 | 1014.1 |
| 20260901175825 | 85 | 270 | 2.0 | 4.0 | 0.00 | 0.00 | 0.00 | 86 | 1014.2 |
| 20260901175319 | 85 | 200 | 1.0 | 4.0 | 0.00 | 0.00 | 0.00 | 86 | 1014.0 |
| 20260901174814 | 85 | 221 | 2.0 | 3.0 | 0.00 | 0.00 | 0.00 | 88 | 1014.0 |
| 20260901174310 | 84 | 255 | 3.0 | 3.0 | 0.00 | 0.00 | 0.00 | 93 | 1014.2 |
| 20260901173806 | 83 | 255 | 3.0 | 4.0 | 0.00 | 0.00 | 0.00 | 92 | 1014.4 |
| 20260901173300 | 83 | 263 | 3.0 | 3.0 | 0.00 | 0.00 | 0.00 | 91 | 1014.4 |
| 20260901172757 | 84 | 257 | 2.0 | 3.0 | 0.00 | 0.00 | 0.00 | 90 | 1014.3 |
| 20260901172256 | 83 | 262 | 3.0 | 3.0 | 0.00 | 0.00 | 0.00 | 91 | 1014.4 |
| 20260901171754 | 83 | 261 | 3.0 | 3.0 | 0.00 | 0.00 | 0.00 | 91 | 1014.6 |
| 20260901171253 | 83 | 254 | 2.0 | 3.0 | 0.00 | 0.00 | 0.00 | 90 | 1014.4 |
| 20260901170752 | 84 | 251 | 2.0 | 3.0 | 0.00 | 0.00 | 0.00 | 90 | 1014.6 |
| 20260901170247 | 83 | 265 | 2.0 | 3.0 | 0.00 | 0.00 | 0.00 | 89 | 1014.6 |
| 20260901165745 | 84 | 259 | 3.0 | 3.0 | 0.00 | 0.00 | 0.00 | 89 | 1014.6 |
| 20260901165240 | 84 | 264 | 2.0 | 3.0 | 0.00 | 0.00 | 0.00 | 87 | 1014.8 |
| 20260901164737 | 84 | 262 | 3.0 | 3.0 | 0.00 | 0.00 | 0.00 | 86 | 1014.8 |
| 20260901164233 | 85 | 280 | 2.0 | 4.0 | 0.00 | 0.00 | 0.00 | 85 | 1014.8 |
| 20260901163727 | 86 | 270 | 2.0 | 4.0 | 0.00 | 0.00 | 0.00 | 83 | 1014.8 |
| 20260901163227 | 87 | 264 | 3.0 | 4.0 | 0.00 | 0.00 | 0.00 | 81 | 1014.9 |
| 20260901162722 | 88 | 304 | 3.0 | 5.0 | 0.00 | 0.00 | 0.00 | 80 | 1015.0 |
| 20260901162221 | 87 | 315 | 3.0 | 3.0 | 0.00 | 0.00 | 0.00 | 79 | 1015.0 |
| 20260901161720 | 87 | 254 | 4.0 | 4.0 | 0.00 | 0.00 | 0.00 | 79 | 1015.2 |
| 20260901161215 | 88 | 262 | 2.0 | 5.0 | 0.00 | 0.00 | 0.00 | 80 | 1015.0 |
| 20260901160712 | 88 | 264 | 0.0 | 5.0 | 0.00 | 0.00 | 0.00 | 78 | 1015.2 |
| 20260901160207 | 88 | 286 | 2.0 | 4.0 | 0.00 | 0.00 | 0.00 | 78 | 1015.0 |
| 20260901155705 | 88 | 253 | 3.0 | 5.0 | 0.00 | 0.00 | 0.00 | 76 | 1015.1 |
| 20260901155201 | 88 | 249 | 4.0 | 4.0 | 0.00 | 0.00 | 0.00 | 79 | 1014.9 |
| 20260901154656 | 87 | 253 | 2.0 | 5.0 | 0.00 | 0.00 | 0.00 | 78 | 1015.2 |
| 20260901154150 | 87 | 201 | 2.0 | 5.0 | 0.00 | 0.00 | 0.00 | 77 | 1015.2 |
| 20260901153646 | 87 | 303 | 2.0 | 5.0 | 0.00 | 0.00 | 0.00 | 82 | 1015.2 |
| 20260901153145 | 87 | 243 | 1.0 | 4.0 | 0.00 | 0.00 | 0.00 | 82 | 1015.2 |
| 20260901152640 | 86 | 257 | 2.0 | 5.0 | 0.00 | 0.00 | 0.00 | 83 | 1015.3 |
| 20260901152138 | 85 | 266 | 3.0 | 3.0 | 0.00 | 0.00 | 0.00 | 86 | 1015.5 |
| 20260901151635 | 84 | 255 | 3.0 | 5.0 | 0.00 | 0.00 | 0.00 | 88 | 1015.1 |
| 20260901151133 | 83 | 278 | 3.0 | 3.0 | 0.00 | 0.00 | 0.00 | 89 | 1015.4 |
| 20260901150627 | 83 | 270 | 4.0 | 4.0 | 0.00 | 0.00 | 0.00 | 89 | 1015.1 |
| 20260901150126 | 83 | 264 | 3.0 | 3.0 | 0.00 | 0.00 | 0.00 | 89 | 1015.5 |
| 20260901145624 | 83 | 266 | 3.0 | 3.0 | 0.00 | 0.00 | 0.00 | 89 | 1015.6 |
| 20260901145124 | 83 | 247 | 3.0 | 3.0 | 0.00 | 0.00 | 0.00 | 87 | 1015.5 |
| 20260901144619 | 84 | 264 | 3.0 | 3.0 | 0.00 | 0.00 | 0.00 | 86 | 1015.3 |
| 20260901144115 | 84 | 267 | 3.0 | 4.0 | 0.00 | 0.00 | 0.00 | 86 | 1015.3 |
| 20260901143610 | 84 | 264 | 2.0 | 2.0 | 0.00 | 0.00 | 0.00 | 84 | 1015.1 |
| 20260901143106 | 85 | 290 | 2.0 | 4.0 | 0.00 | 0.00 | 0.00 | 85 | 1015.2 |
| 20260901142602 | 85 | 315 | 2.0 | 4.0 | 0.00 | 0.00 | 0.00 | 85 | 1015.1 |
| 20260901142101 | 85 | 251 | 2.0 | 4.0 | 0.00 | 0.00 | 0.00 | 84 | 1015.2 |
| 20260901141556 | 84 | 262 | 3.0 | 4.0 | 0.00 | 0.00 | 0.00 | 86 | 1015.4 |
| 20260901141051 | 84 | 251 | 2.0 | 5.0 | 0.00 | 0.00 | 0.00 | 86 | 1015.4 |
| 20260901140549 | 85 | 237 | 3.0 | 3.0 | 0.00 | 0.00 | 0.00 | 84 | 1015.3 |
| 20260901140044 | 84 | 254 | 5.0 | 5.0 | 0.00 | 0.00 | 0.00 | 87 | 1015.2 |
| 20260901135543 | 83 | 196 | 5.0 | 5.0 | 0.00 | 0.00 | 0.00 | 87 | 1015.3 |
| 20260901135038 | 82 | 263 | 3.0 | 4.0 | 0.00 | 0.00 | 0.00 | 89 | 1015.4 |
| 20260901134535 | 82 | 248 | 5.0 | 5.0 | 0.00 | 0.00 | 0.00 | 90 | 1015.6 |
| 20260901134029 | 82 | 306 | 1.0 | 6.0 | 0.00 | 0.00 | 0.00 | 90 | 1015.4 |
| 20260901133528 | 81 | 233 | 3.0 | 4.0 | 0.00 | 0.00 | 0.00 | 90 | 1015.3 |
| 20260901133027 | 81 | 270 | 1.0 | 2.0 | 0.00 | 0.00 | 0.00 | 92 | 1015.6 |
| 20260901132527 | 81 | 289 | 3.0 | 4.0 | 0.00 | 0.00 | 0.00 | 94 | 1015.4 |
| 20260901132021 | 80 | 252 | 2.0 | 5.0 | 0.00 | 0.00 | 0.00 | 94 | 1015.9 |
| 20260901131521 | 80 | 180 | 1.0 | 2.0 | 0.00 | 0.00 | 0.00 | 95 | 1015.8 |
| 20260901131016 | 79 | 255 | 3.0 | 5.0 | 0.00 | 0.00 | 0.00 | 95 | 1015.8 |
| 20260901130511 | 79 | 239 | 2.0 | 3.0 | 0.00 | 0.00 | 0.00 | 97 | 1015.9 |
| 20260901130010 | 78 | 233 | 0.0 | 3.0 | 0.00 | 0.00 | 0.00 | 99 | 1016.1 |
| 20260901125509 | 78 | 232 | 3.0 | 3.0 | 0.00 | 0.00 | 0.00 | 99 | 1016.0 |
| 20260901125009 | 78 | 270 | 2.0 | 2.0 | 0.00 | 0.00 | 0.00 | 99 | 1016.1 |
| 20260901124505 | 76 | 194 | 1.0 | 3.0 | 0.00 | 0.00 | 0.00 | 99 | 1016.0 |
| 20260901123958 | 77 | 252 | 2.0 | 2.0 | 0.00 | 0.00 | 0.00 | 99 | 1016.0 |
| 20260901123454 | 76 | 221 | 2.0 | 3.0 | 0.00 | 0.00 | 0.00 | 99 | 1016.0 |
| 20260901122951 | 75 | 277 | 0.0 | 1.0 | 0.00 | 0.00 | 0.00 | 99 | 1015.9 |
| 20260901122451 | 75 | 251 | 3.0 | 3.0 | 0.00 | 0.00 | 0.00 | 99 | 1016.1 |
| 20260901121950 | 75 | 210 | 2.0 | 3.0 | 0.00 | 0.00 | 0.00 | 99 | 1016.3 |
| 20260901121445 | 74 | 264 | 3.0 | 4.0 | 0.00 | 0.00 | 0.00 | 99 | 1016.2 |
| 20260901120941 | 74 | 261 | 2.0 | 3.0 | 0.00 | 0.00 | 0.00 | 99 | 1016.1 |
| 20260901120435 | 74 | 231 | 2.0 | 3.0 | 0.00 | 0.00 | 0.00 | 99 | 1016.2 |
| 20260901115931 | 74 | 276 | 2.0 | 2.0 | 0.00 | 0.00 | 0.00 | 99 | 1016.1 |
| 20260901115430 | 73 | 254 | 1.0 | 2.0 | 0.00 | 0.00 | 0.00 | 99 | 1016.2 |
| 20260901114928 | 73 | 254 | 1.0 | 2.0 | 0.00 | 0.00 | 0.00 | 99 | 1015.9 |
| 20260901114423 | 73 | 254 | 1.0 | 2.0 | 0.00 | 0.00 | 0.00 | 99 | 1016.0 |
| 20260901113922 | 73 | 254 | 1.0 | 2.0 | 0.00 | 0.00 | 0.00 | 99 | 1016.1 |
| 20260901113421 | 73 | 243 | 0.0 | 2.0 | 0.00 | 0.00 | 0.00 | 99 | 1015.8 |
| 20260901112916 | 73 | 270 | 1.0 | 3.0 | 0.00 | 0.00 | 0.00 | 99 | 1016.0 |
| 20260901112411 | 73 | 270 | 1.0 | 3.0 | 0.00 | 0.00 | 0.00 | 99 | 1016.3 |
| 20260901111906 | 72 | 248 | 2.0 | 3.0 | 0.00 | 0.00 | 0.00 | 99 | 1016.1 |
| 20260901111404 | 72 | 270 | 2.0 | 2.0 | 0.00 | 0.00 | 0.00 | 99 | 1016.3 |
| 20260901110903 | 72 | 270 | 2.0 | 2.0 | 0.00 | 0.00 | 0.00 | 99 | 1016.4 |
| 20260901110359 | 72 | 253 | 2.0 | 2.0 | 0.00 | 0.00 | 0.00 | 99 | 1016.4 |
| 20260901105855 | 72 | 270 | 2.0 | 3.0 | 0.00 | 0.00 | 0.00 | 99 | 1016.0 |
| 20260901105350 | 72 | 255 | 3.0 | 3.0 | 0.00 | 0.00 | 0.00 | 99 | 1016.2 |
| 20260901104846 | 72 | 258 | 2.0 | 2.0 | 0.00 | 0.00 | 0.00 | 99 | 1016.0 |
| 20260901104341 | 72 | 258 | 2.0 | 2.0 | 0.00 | 0.00 | 0.00 | 99 | 1016.0 |
| 20260901103836 | 71 | 240 | 2.0 | 3.0 | 0.00 | 0.00 | 0.00 | 99 | 1015.7 |
| 20260901103331 | 71 | 262 | 1.0 | 2.0 | 0.00 | 0.00 | 0.00 | 99 | 1015.7 |
| 20260901102826 | 72 | 190 | 0.0 | 0.0 | 0.00 | 0.00 | 0.00 | 99 | 1015.5 |
| 20260901102325 | 71 | 190 | 0.0 | 0.0 | 0.00 | 0.00 | 0.00 | 99 | 1015.5 |
| 20260901101822 | 72 | 190 | 0.0 | 0.0 | 0.00 | 0.00 | 0.00 | 99 | 1015.7 |
| 20260901101321 | 71 | 270 | 2.0 | 2.0 | 0.00 | 0.00 | 0.00 | 99 | 1015.5 |